#timestamp,LO_Frequency,Hit,StdDev 
1643043615.7,286047001.6,N
1643043635.5,286047004.4,Y
1643043655.4,286047000.6,P
1643043675.2,286046999.3,N
1643043695.0,286046999.1,N
1643043695.9,286046999.1,N
1643043715.8,286046999.2,N
1643043735.6,286046998.4,N
1643043755.4,286047001.0,N
1643043775.3,286046998.3,N
1643043795.1,286046996.8,N
1643043815.9,286046998.0,N
1643043835.7,286046997.8,N
1643043855.5,286046996.8,N
1643043875.4,286046996.6,N
1643043895.2,286046996.9,N
1643043915.0,286046998.7,N
1643043915.9,286046998.7,N
1643043935.8,286046999.6,N
1643043955.6,286046996.8,N
1643043975.5,286046997.8,N
1643043995.3,286046997.3,N
1643044015.1,286046996.8,N
1643044035.9,286046999.5,N
1643044055.7,286047001.1,N
1643044075.5,286046999.0,N
1643044095.4,286046998.1,N
1643044115.2,286046999.6,N
1643044135.1,286046999.4,N
1643044136.0,286046999.4,N
1643044155.8,286046998.5,N
1643044175.6,286047000.6,N
1643044195.5,286047002.8,N
1643044215.3,286047001.4,N
1643044235.1,286047001.8,N
1643044255.9,286047003.8,N
1643044275.7,286047003.0,N
1643044295.6,286047004.4,N
1643044315.4,286047002.2,N
1643044335.2,286047000.0,N
1643044355.1,286047000.2,N
1643044356.0,286047000.2,N
1643044375.8,286046999.4,N
1643044395.7,286046999.6,N
1643044415.5,286046995.6,N
1643044435.3,286046997.9,N
1643044455.2,286046996.8,N
1643044475.0,286046999.5,N
1643044475.9,286046999.5,N
1643044495.7,286046998.7,N
1643044515.6,286047000.4,N
1643044535.4,286047000.0,N
1643044555.3,286047001.1,N
1643044575.1,286047002.8,N
1643044576.0,286047002.8,N
1643044595.8,286047002.6,N
1643044615.7,286046999.8,N
1643044635.5,286047002.1,N
1643044655.4,286047002.3,N
1643044675.2,286047002.7,N
1643044695.0,286046998.3,N
1643044695.9,286046998.3,N
1643044715.8,286047000.7,N
1643044735.6,286047000.4,N
1643044755.5,286047000.4,N
1643044775.3,286047001.9,N
1643044795.1,286047002.2,N
1643044815.9,286047001.3,N
1643044835.7,286047003.7,N
1643044855.5,286047001.7,N
1643044875.4,286047001.6,N
1643044895.2,286046999.7,N
1643044915.1,286047001.3,N
1643044916.0,286047001.3,N
1643044935.8,286047002.5,N
1643044955.6,286047001.4,N
1643044975.5,286047002.0,N
1643044995.3,286047001.8,N
1643045015.1,286047002.2,N
1643045035.9,286047002.0,N
1643045055.7,286047001.5,N
1643045075.6,286047003.8,Y
1643045095.4,286047000.1,P
1643045115.2,286047004.4,P
1643045135.1,286047000.2,N
1643045136.0,286047000.2,N
1643045155.8,286046999.9,N
1643045175.6,286047002.7,N
1643045195.5,286047000.0,N
1643045215.3,286047002.3,N
1643045235.2,286047002.6,N
1643045255.9,286047003.8,N
1643045275.7,286047001.6,N
1643045295.6,286047002.1,N
1643045315.4,286047000.8,N
1643045335.2,286046998.7,N
1643045355.1,286046998.1,N
1643045356.0,286046998.1,N
1643045375.8,286047001.0,N
1643045395.7,286047002.0,N
1643045415.5,286047002.7,N
1643045435.3,286047000.4,N
1643045455.2,286046999.9,N
1643045475.0,286047002.4,N
1643045475.9,286047002.4,N
1643045495.8,286047002.2,N
1643045515.6,286047002.1,N
1643045535.4,286047000.2,N
1643045555.3,286047000.9,N
1643045575.1,286047000.4,N
1643045595.8,286047001.5,N
1643045615.7,286047001.9,N
1643045635.5,286047002.0,N
1643045655.4,286047002.2,N
1643045675.2,286047000.3,N
1643045695.0,286046999.9,N
1643045695.9,286046999.9,N
1643045715.8,286047000.2,N
1643045735.6,286047002.5,N
1643045755.4,286047002.1,N
1643045775.3,286047002.3,N
1643045795.1,286047004.4,Y
1643045815.9,286047000.3,P
1643045835.7,286046999.4,N
1643045855.5,286046998.7,N
1643045875.4,286047000.8,N
1643045895.2,286047000.8,N
1643045915.0,286046998.5,N
1643045915.9,286046998.5,N
1643045935.8,286047001.1,N
1643045955.6,286047000.2,N
1643045975.5,286046998.5,N
1643045995.3,286047000.9,N
1643046015.1,286047000.1,N
1643046035.9,286047000.6,N
1643046055.7,286047001.6,N
1643046075.5,286047002.1,N
1643046095.4,286047002.7,N
1643046115.2,286047002.7,N
1643046135.1,286047002.4,N
1643046136.0,286047002.4,N
1643046155.8,286047000.3,N
1643046175.6,286047004.0,N
1643046195.5,286047001.3,N
1643046215.3,286047004.1,N
1643046235.1,286047004.2,N
1643046255.9,286047001.4,N
1643046275.7,286047004.0,N
1643046295.6,286047001.5,N
1643046315.4,286047003.7,N
1643046335.2,286047001.5,N
1643046355.1,286047002.3,N
1643046356.0,286047002.3,N
1643046375.8,286047002.7,N
1643046395.7,286047002.4,N
1643046415.5,286046999.7,N
1643046435.3,286047000.2,N
1643046455.2,286047002.3,N
1643046475.9,286046999.8,N
1643046495.7,286047002.3,N
1643046515.6,286047002.5,N
1643046535.4,286047002.4,N
1643046555.3,286047002.6,N
1643046575.1,286047002.4,N
1643046576.0,286047002.4,N
1643046595.8,286047002.3,N
1643046615.7,286047001.4,N
1643046635.5,286047002.5,N
1643046655.3,286047000.0,N
1643046675.2,286047000.6,N
1643046695.0,286047001.1,N
1643046695.9,286047001.1,N
1643046715.8,286047000.4,N
1643046735.6,286047001.1,N
1643046755.5,286047000.4,N
1643046775.3,286046999.8,N
1643046795.1,286047001.1,N
1643046815.9,286047000.4,N
1643046835.7,286046998.8,N
1643046855.5,286046998.1,N
1643046875.4,286046996.9,N
1643046895.2,286046996.8,N
1643046915.1,286046996.6,N
1643046916.0,286046996.6,N
1643046935.8,286047000.7,N
1643046955.6,286046999.8,N
1643046975.5,286047000.5,N
1643046995.3,286047000.7,N
1643047015.2,286047000.2,N
1643047035.9,286047001.1,N
1643047055.7,286046999.8,N
1643047075.6,286046999.7,N
1643047095.4,286046998.2,N
1643047115.2,286046998.7,N
1643047135.1,286046998.2,N
1643047136.0,286046998.2,N
1643047155.8,286047001.1,N
1643047175.7,286046998.4,N
1643047195.5,286046997.1,N
